Presure
196 172 180 151 153 111 150 129 193 187 140 126 169 119 199 212 131 202 213 174 166 175 206 196 203 203 180 204 198 145 213 220 219 220 220 223 227 227 193 200 224 227 226 235 268 294 216
181 153 118 179 135 134 164 123 209 184 190 196 162 202 187 185 182 128 125 165 140 183 177 181 202 187 207 213 135 195 221 216 218 224 226 223 210 220 253 230 331 228 241 230 232 227 250
190 189 157 177 137 127 125 113 175 191 182 130 160 200 167 212 213 211 190 191 232 172 181 230 193 186 187 196 187 196 201 199 204 217 215 414 410 402 397 400 424 437 400 374 372 253 233
194 191 195 190 128 114 174 145 175 193 185 197 184 170 174 155 218 226 187 218 218 222 214 187 223 231 169 194 187 174 197 194 215 263 403 383 349 345 377 391 377 377 399 426 435 423 380
181 186 193 191 116 183 173 157 169 200 203 131 161 189 140 186 155 192 198 193 210 230 201 209 216 240 220 192 182 180 193 216 273 396 363 303 348 346 353 380 402 392 371 370 392 388 396
207 196 194 157 185 169 125 150 200 130 190 189 129 181 123 196 210 192 145 199 181 194 233 222 227 227 205 176 196 197 217 258 391 269 357 333 333 326 333 337 349 381 411 359 358 362 371
197 208 201 196 190 191 184 195 126 176 189 130 131 176 170 192 129 197 166 213 171 173 205 212 222 220 207 203 183 219 216 411 180 358 324 328 321 334 322 324 333 341 369 385 335 349 362
202 206 204 216 198 196 193 193 194 146 185 131 198 176 191 191 182 138 191 196 194 190 178 171 207 214 205 191 200 201 212 308 368 336 319 304 318 321 314 325 322 333 334 375 372 345 341
216 208 202 202 201 214 203 194 199 192 177 190 154 191 195 154 180 193 193 179 198 211 191 197 205 210 200 189 206 208 292 201 360 326 307 300 291 295 305 298 311 338 330 340 371 390 399
216 206 220 214 207 192 208 197 200 182 194 197 183 183 190 172 200 191 198 176 205 205 225 233 224 203 199 193 206 190 296 353 369 322 310 298 285 284 288 284 289 300 302 307 328 320 338
224 214 214 210 213 161 204 207 206 155 167 204 190 170 178 192 193 126 199 203 226 152 222 236 217 191 183 195 214 228 180 344 328 339 309 292 289 285 277 271 281 283 297 286 282 293 325
230 218 215 211 197 206 205 221 215 207 204 131 208 196 144 188 189 162 194 197 190 211 207 223 209 197 180 199 210 231 242 360 326 348 317 301 289 274 283 277 277 275 281 278 278 298 303
256 240 213 220 213 207 206 213 214 216 208 196 210 202 190 192 196 197 184 204 195 200 192 217 206 196 183 200 205 231 285 360 342 306 318 292 281 289 269 276 278 273 280 281 285 287 290
237 255 235 237 211 218 213 215 212 215 214 211 204 209 203 203 196 186 197 192 206 198 183 218 199 184 193 195 204 259 284 309 354 326 311 319 287 281 266 283 278 261 269 275 297 302 289
234 258 241 228 156 206 213 217 217 207 208 213 213 205 207 204 204 122 194 187 203 200 177 210 190 178 194 197 198 255 174 300 327 337 314 314 307 288 277 271 278 285 283 271 291 264 292
213 232 240 248 139 209 221 213 213 216 206 207 216 193 202 201 205 197 197 196 191 204 211 207 194 175 188 192 199 235 174 297 345 326 324 304 298 302 251 274 270 285 294 288 183 294 295
236 249 254 238 239 235 241 241 214 214 219 209 213 220 207 204 199 193 202 211 214 204 202 202 194 181 186 194 200 231 281 293 314 347 327 320 297 307 286 280 279 287 118 313 287 300 292
255 248 241 241 257 232 239 236 245 224 223 222 203 209 219 205 205 203 189 210 157 201 194 195 186 184 187 188 210 224 174 293 305 309 344 342 306 302 318 289 140 291 279 293 298 282 292
253 254 259 232 248 256 238 242 238 252 228 218 222 203 216 208 198 197 196 210 210 213 196 202 195 185 189 186 205 221 276 292 300 311 312 345 329 303 312 291 277 294 269 273 281 290 157
305 289 261 211 197 261 252 245 250 227 250 258 220 219 208 214 201 203 208 207 204 199 210 189 183 183 188 185 196 220 238 158 298 311 319 317 351 315 307 320 270 281 290 274 289 281 294
449 282 282 292 267 238 240 244 248 248 248 246 251 227 205 207 209 207 207 206 206 199 194 195 181 179 185 188 192 210 224 286 300 316 337 329 315 338 312 311 265 282 293 280 289 287 290
420 457 278 290 297 288 278 233 233 240 248 229 258 228 204 207 207 211 201 206 204 205 187 197 178 177 186 186 184 208 214 231 219 315 340 297 327 315 332 325 310 298 298 298 286 284 285
385 452 436 264 273 259 265 283 306 253 250 257 256 253 211 202 208 178 205 200 198 200 191 202 171 177 182 183 189 195 212 221 244 313 339 304 336 334 316 339 301 293 172 267 288 196 211
366 421 392 367 241 257 258 272 273 230 260 253 262 269 218 208 205 191 201 201 201 190 202 202 182 177 181 189 190 196 206 214 221 251 326 331 317 313 333 328 325 296 216 150 269 224 296
355 431 360 349 337 233 255 261 268 290 249 257 248 262 212 205 206 209 200 159 199 190 208 200 183 182 181 187 186 188 196 209 217 227 253 327 324 322 314 313 310 303 159 162 293 176 180
346 425 382 355 317 241 246 172 260 219 229 239 246 254 237 213 199 208 209 202 206 199 213 194 182 181 181 184 187 195 193 210 211 216 229 267 333 331 324 327 316 320 173 289 290 289 144
341 418 353 321 302 251 240 252 256 280 257 242 232 255 258 200 202 210 211 205 207 198 205 199 183 178 184 187 183 196 187 195 208 212 215 229 248 341 344 332 312 302 291 302 297 299 148
337 389 296 281 279 271 234 246 260 252 289 235 272 257 244 212 213 207 211 191 210 200 206 206 183 180 179 186 186 197 181 190 198 206 209 217 227 242 344 349 353 299 333 313 301 302 160
339 376 323 296 286 281 242 239 217 252 274 279 251 249 270 214 214 208 211 201 209 191 190 205 196 189 170 175 185 193 186 187 186 199 206 208 218 219 244 264 369 334 340 308 295 174 163
Wind_Speed
58 53 49 40 50 36 47 43 44 42 46 41 43 39 49 52 40 53 56 51 50 51 53 54 54 56 52 59 62 49 68 71 74 78 81 83 87 87 76 82 91 89 93 94 96 98 89
60 58 45 53 38 47 51 42 42 48 46 45 44 46 49 49 51 39 36 47 41 53 57 58 57 58 59 60 42 67 70 74 78 82 85 86 84 91 98 98 85 94 96 93 94 93 98
67 63 55 56 59 49 45 41 55 48 52 46 51 48 53 46 47 53 53 54 50 47 59 53 60 59 60 62 66 68 71 71 74 81 85 49 43 42 43 44 41 49 73 80 77 99 98
70 68 63 62 55 46 58 50 56 49 52 50 54 53 50 45 45 44 52 51 51 50 53 61 55 58 58 66 67 62 73 71 81 91 40 43 48 40 38 41 46 47 44 41 44 54 78
67 71 71 66 49 60 57 58 56 54 50 48 48 54 46 53 46 53 51 50 46 49 54 56 58 56 59 67 65 64 72 80 76 37 46 37 28 29 28 26 26 43 49 44 39 48 55
76 78 76 63 65 59 50 61 59 48 57 53 45 58 42 55 50 53 43 49 48 49 52 52 55 55 61 62 71 72 79 74 36 57 16 31 30 36 28 25 22 20 32 46 42 45 52
76 73 78 78 72 69 64 65 51 61 59 46 44 54 52 55 42 53 53 53 46 52 47 51 54 54 58 66 65 75 78 27 62 19 34 30 32 24 23 24 20 24 18 23 46 44 46
76 77 76 75 80 77 73 69 67 59 61 48 56 58 61 57 53 44 50 50 50 52 58 53 52 54 60 63 68 69 77 37 22 23 28 35 33 25 22 21 22 24 26 14 24 49 50
80 82 78 79 77 78 78 74 73 68 60 61 51 61 60 52 56 56 53 49 50 49 54 56 51 54 58 61 68 72 84 52 18 25 30 30 29 26 23 26 31 24 25 21 8 15 23
83 78 79 83 82 76 79 78 77 67 69 65 62 62 63 56 61 58 58 48 52 50 54 56 52 55 58 61 69 64 81 44 24 28 24 25 25 24 22 22 23 27 19 21 28 6 8
87 83 82 79 80 68 80 78 78 57 63 70 68 57 59 63 64 39 58 56 58 43 50 53 49 53 50 61 68 73 51 48 39 19 22 24 22 18 19 17 20 18 19 17 10 15 8
85 89 87 84 78 79 76 76 77 77 74 49 67 68 53 63 62 49 57 50 44 42 42 48 47 52 48 61 67 73 62 39 40 19 20 20 21 16 18 19 15 10 9 4 10 15 6
76 83 87 92 87 82 79 80 76 75 74 71 68 67 64 67 63 61 53 54 43 43 40 46 47 51 49 60 64 71 71 41 33 34 20 21 21 15 12 15 17 10 12 8 12 11 9
86 82 83 92 86 92 84 82 79 76 73 71 69 65 66 67 63 55 58 44 46 45 44 44 45 44 52 55 60 67 70 66 32 29 25 18 20 16 17 17 13 17 8 10 10 14 13
89 87 83 87 65 87 88 88 84 78 73 72 66 66 62 65 61 33 56 40 43 39 44 41 42 39 52 54 56 66 40 66 50 31 26 21 18 20 15 13 16 17 10 11 14 13 8
79 91 91 86 62 81 97 90 86 83 77 70 70 67 65 64 60 62 56 45 43 37 37 37 41 37 48 51 56 65 35 63 41 38 31 24 22 19 19 15 16 19 11 10 11 4 9
93 93 97 92 90 90 91 92 92 86 84 74 70 65 67 65 61 61 56 52 41 32 32 33 38 39 45 49 54 61 62 61 54 37 32 25 21 17 20 16 13 6 17 3 10 14 9
102 101 100 97 96 89 93 93 89 95 92 77 69 63 64 64 61 61 52 48 33 31 30 30 34 38 43 44 53 55 32 57 54 49 34 23 19 18 14 18 30 7 4 16 16 19 19
105 106 104 98 98 98 97 93 93 84 94 77 73 64 62 63 61 59 57 45 36 30 28 28 32 35 41 41 50 54 58 55 54 49 43 27 17 17 13 14 14 7 8 13 12 22 27
114 115 106 88 79 99 100 96 92 88 85 84 73 67 60 60 62 59 57 41 34 27 28 25 29 33 37 37 46 51 57 18 54 49 41 34 16 14 13 10 10 8 18 12 13 22 23
65 107 105 113 104 106 89 96 96 89 85 86 82 71 61 59 60 59 56 41 33 27 24 25 28 29 33 36 39 44 52 55 52 51 42 32 26 13 10 11 15 13 18 14 20 22 26
42 66 102 100 97 104 102 93 90 92 86 78 76 70 64 62 60 58 56 40 33 26 27 23 26 25 31 31 33 40 44 54 27 50 44 40 25 19 10 8 10 17 13 24 25 23 23
41 61 72 95 95 95 96 99 90 95 88 80 76 71 67 60 61 51 57 42 35 30 26 24 22 24 26 27 32 36 39 47 57 48 44 38 28 17 14 6 11 12 23 27 30 20 17
47 56 71 84 94 92 92 97 84 84 87 84 77 73 68 62 61 55 55 46 35 35 27 25 26 22 24 26 27 30 34 39 45 58 44 36 32 26 12 5 6 8 20 21 26 18 18
37 50 78 85 85 92 96 97 91 79 87 81 71 68 69 66 65 61 57 36 41 35 29 27 25 23 22 23 22 25 29 32 39 47 58 39 31 24 17 9 1 4 24 20 26 17 15
37 49 80 81 86 95 95 66 85 80 78 75 71 68 69 69 62 63 61 51 43 36 34 29 26 23 22 20 20 22 23 27 31 38 47 51 35 28 20 13 5 3 22 13 12 17 26
38 39 80 81 90 100 90 94 87 84 78 77 71 70 70 69 67 65 63 54 46 39 35 32 29 23 22 21 18 18 17 21 26 31 35 44 53 32 23 16 13 18 16 15 18 14 24
46 45 93 96 97 97 87 91 95 69 77 76 77 69 72 73 72 67 63 51 50 43 37 36 32 26 21 21 19 15 11 16 19 22 27 34 41 47 28 17 11 16 9 16 16 15 22
49 52 100 100 101 93 96 85 73 78 78 77 75 67 68 77 74 69 65 58 52 46 40 39 35 30 18 15 18 17 14 12 10 16 20 23 31 33 46 47 11 14 14 14 17 21 21
Wind_Direction
265 256 253 254 253 251 254 248 266 260 254 254 261 263 264 266 264 270 273 269 270 275 281 279 277 279 281 284 284 280 283 282 280 279 279 278 277 275 269 268 266 264 260 256 249 245 242
260 249 243 258 256 242 254 250 265 260 262 260 257 263 263 264 265 265 268 272 273 277 278 280 283 283 284 284 280 287 288 286 285 285 284 283 281 279 274 271 266 265 259 257 252 250 246
261 260 253 254 252 247 244 255 258 261 262 250 259 266 264 269 269 270 273 276 277 279 279 286 282 285 287 285 286 289 290 290 292 291 289 295 293 288 279 275 273 265 256 253 250 245 246
258 261 259 259 249 246 252 255 257 262 259 264 264 259 266 263 273 277 274 279 282 284 283 282 288 292 288 287 288 295 295 297 296 300 304 305 299 296 296 284 269 261 260 257 248 248 244
258 260 260 258 240 258 256 254 255 268 267 252 262 264 259 267 268 276 277 279 289 295 284 287 290 298 292 289 292 298 299 300 305 315 310 293 306 310 323 323 290 263 257 253 243 241 240
256 256 258 253 257 255 249 252 263 252 260 262 259 261 259 271 282 274 273 281 279 283 304 297 300 299 292 294 295 299 304 309 315 304 312 306 303 307 308 319 348 327 261 245 240 239 243
253 251 253 256 257 256 256 258 253 255 259 256 257 261 259 270 264 275 269 290 283 281 298 299 304 300 294 293 300 308 310 322 299 310 313 314 316 318 327 342 348 355 327 253 238 241 248
255 254 252 251 254 254 255 255 257 254 257 254 265 260 267 269 268 268 277 283 289 282 283 289 300 304 300 300 307 309 315 310 311 301 312 320 332 343 2 356 4 8 349 314 229 234 237
252 253 253 251 253 253 252 253 253 255 254 259 255 263 269 259 266 274 278 273 289 300 289 294 302 304 300 305 312 317 333 312 300 308 319 322 334 339 4 355 16 28 40 37 357 278 263
254 252 255 255 253 253 252 253 252 252 255 256 256 259 264 263 273 271 279 270 291 296 306 310 310 304 305 310 316 317 338 346 318 312 319 320 336 329 350 358 3 19 33 35 18 27 13
251 253 252 252 252 248 250 252 252 249 252 255 256 256 261 266 270 264 278 284 294 278 307 311 309 303 310 314 320 328 318 347 341 295 317 322 332 322 337 343 1 6 48 53 326 331 13
245 251 252 250 248 250 251 252 250 252 253 243 252 256 258 263 268 270 278 280 287 300 305 310 307 305 314 316 323 332 335 345 342 319 313 315 323 326 324 326 344 354 6 153 262 309 329
255 250 250 252 251 250 249 251 250 249 249 252 249 253 255 261 266 271 275 282 288 292 295 310 308 308 315 320 326 334 342 347 341 338 321 317 319 311 318 332 336 345 348 305 281 281 232
254 253 249 244 250 250 249 250 249 249 246 247 250 249 254 258 264 267 274 278 287 289 290 309 306 307 315 321 326 341 343 348 340 334 329 290 296 305 303 314 313 299 279 304 310 241 234
254 257 249 246 241 248 248 250 250 248 246 248 247 249 251 255 260 255 271 275 283 290 288 307 304 311 316 324 329 343 332 348 347 337 329 317 282 284 292 300 307 309 280 265 299 249 228
249 251 250 248 243 243 244 247 248 247 245 245 247 247 250 254 256 263 268 273 275 289 301 304 305 312 317 326 330 343 334 348 344 340 332 322 315 282 328 277 287 312 327 307 281 93 342
249 245 245 246 244 243 243 244 246 247 247 243 245 244 244 249 253 259 265 272 278 282 293 299 303 309 316 325 330 344 347 349 350 341 333 319 312 296 280 282 274 292 250 248 215 109 61
247 245 243 245 242 244 242 241 242 244 247 242 239 242 240 245 249 254 259 266 261 276 282 294 299 308 315 324 331 345 335 350 352 352 339 322 309 303 284 269 214 239 221 168 157 132 114
249 245 241 243 242 239 242 242 240 242 241 241 239 237 240 242 246 250 257 261 268 276 277 292 298 307 313 325 332 346 355 352 353 353 352 339 310 308 287 252 284 216 246 195 235 147 187
241 238 238 239 240 237 236 240 240 240 240 241 236 234 235 239 242 246 251 254 258 261 281 281 293 302 310 324 329 347 356 330 355 354 351 351 327 304 296 254 271 240 191 223 221 173 152
229 235 235 234 238 238 232 235 238 236 237 240 237 235 229 234 238 242 246 247 250 250 265 276 285 298 310 321 330 343 356 2 358 357 354 348 347 314 292 264 235 235 207 217 211 202 143
230 209 228 229 228 236 239 234 233 236 236 236 239 231 226 229 235 238 243 240 241 247 250 267 278 294 304 318 330 343 356 3 356 0 357 1 350 347 309 265 232 211 213 201 198 207 169
230 211 203 223 224 228 233 238 234 232 233 232 234 230 220 224 230 236 237 235 232 239 242 256 272 287 303 316 326 335 357 4 11 5 2 4 0 345 353 314 225 196 196 188 196 199 191
218 203 191 210 222 223 229 235 230 228 228 229 230 232 217 219 227 230 233 231 227 234 242 248 258 276 294 307 323 334 353 3 11 17 9 8 9 14 5 21 183 161 199 209 195 198 181
229 204 193 203 206 227 223 230 230 222 226 226 226 228 212 216 224 227 230 229 226 231 236 238 249 266 284 300 319 330 342 1 12 18 21 15 14 17 27 31 139 148 202 199 191 183 199
223 206 188 185 198 218 224 221 230 223 224 223 223 223 214 212 220 224 227 226 225 223 236 228 242 256 273 291 307 321 335 0 11 17 24 24 20 20 25 34 56 140 205 142 176 199 225
202 209 181 183 200 214 225 226 228 228 221 223 220 220 220 215 218 220 224 223 221 218 228 226 235 246 262 275 296 311 332 348 10 18 21 29 30 22 28 41 68 94 96 143 153 157 229
209 208 175 190 199 208 218 223 229 219 221 218 220 219 216 208 213 216 221 222 221 215 221 225 230 238 250 262 278 294 316 339 357 17 23 25 33 36 28 40 65 76 129 151 129 138 225
209 200 184 190 197 196 217 223 203 222 220 218 217 211 216 207 208 213 217 217 218 214 216 223 222 228 232 243 261 274 295 319 347 2 23 29 32 37 43 45 71 90 138 138 128 215 236